Showing default

PSN N5, 65588

Orbit data source: Space-Track

PSN N5, 65588 is a payload satellite owned by SNT (ID) in GEO that was launched on Fri, 12 Sep 2025 UTC via an FALCON 9 launch vehicle from the Air Force Eastern Test Range (AFETR). Payload-class satellites include a variety of spacecraft equipped with specific instruments for various scientific and technological missions. These include communications satellites like Starlink; space stations such as the ISS; scientific satellites like the Hubble; Earth observation satellites from companies like Planet Labs, Umbra, and HawkEye 360; GPS; miniature CubeSats for education and research; and military/defense satellites.

Not visible in the next 10 days
Identifier
65588, 2025-205A
Orbit
GEO
Country
Flag of IDID / INDO
Related business
Manufacturer
Boeing/ES
Mission
Operational Commercial Communications
Bus & Motor
BSS-702MP, R-4D?
Mass
7,800 kg wet, ~4,500 kg dry
Launch date (UTC)
2025-09-12 (9 months ago)
Launch vehicle
FALCON 9
Launch site
Air Force Eastern Test Range (AFETR)
Object type
Payload
Rocket body
Debris
Shape & HBR
Box + 2 Pan, 22.5 m
Radar Cross Section
56.564 m², Large (>1 m²)

Expand to show TLE details & history
Last TLE update: 12 hours ago

TLE from 12 hours ago
0 PSN N5
1 65588U 25205A   26171.34303559 -.00000362  00000-0  00000+0 0  9996
2 65588   0.0404 170.4876 0000107 328.8729   5.5338  1.00270872  2757
Epoch: 2026-06-20T08:13Z
TLE epoch observation values (Epoch: 2026-06-20T08:13:58.274Z)
Latitude
0.01384°
Longitude
112.85494°
Altitude
35,785.891 km
Speed
3.075 km/s
True Right ascension
09h 39m 37s
True Declination
0° 00' 50"
Sunlit
Object was in daylight at epoch
Visualization orbit readout
Latitude
Unknown
Longitude
Unknown
Altitude
Unknown
Speed
Unknown
Apparent Right ascension
Unknown
Apparent Declination
Unknown
Sunlit
N/A
Visualization observer readout
Local Sidereal Time
07:22:56
Azimuth
Unknown
Elevation
Unknown
Doppler factor
Unknown
Orbital elements
Apogee altitude
35,788.372 km
Perigee altitude
35,787.47 km
Semi-major axis
42,166.058 km
Eccentricity
0.00001
Inclination
0.0404°
RAAN
170.4876°
Arg. of periapsis
328.8729°
True anomaly
5.53392°
Mean anomaly
5.5338°
Eccentric anomaly
5.53386°
Mean motion
0.25067 °/min
Orbital period
1,436.16 mins
BSTAR
0
Loading maneuver chart data...
Computing Atmospheric mass density...
Loading historical data...
Loading historical data...
Loading historical data...
Loading historical data...
Loading historical data...
Loading historical data...
Loading historical data...
Other satellites on launch #205 in the year 2025 (2025-09-12 UTC)

Documentation

Showing up to 5 results
|